KAC671 OKKK-OMDB

Flight info

Callsign KAC671
Flight time N/A
Altitude 37000
Route SESRU M677 VUTEB
Aircraft A20N/M-SDE2E3FGHIRWXY/LB1

Departure

Time 2026-05-08 12:58
Airport Kuwait International Airport (OKKK)

Arrival

Time N/A
Airport Dubai International Airport (OMDB)
Time Latitude Longitude Altitude Speed Heading
2026-05-08 12:37 29.25039 47.96000 135 ft 0 kts 64°
2026-05-08 12:44 29.25038 47.95998 135 ft 2 kts 64°
2026-05-08 12:44 29.25031 47.95982 135 ft 2 kts 64°
2026-05-08 12:44 29.25025 47.95967 135 ft 2 kts 64°
2026-05-08 12:44 29.25018 47.95952 135 ft 2 kts 64°
2026-05-08 12:45 29.25011 47.95936 135 ft 2 kts 64°
2026-05-08 12:45 29.25005 47.95921 135 ft 2 kts 69°
2026-05-08 12:45 29.25004 47.95903 135 ft 2 kts 108°
2026-05-08 12:45 29.25012 47.95889 135 ft 2 kts 140°
2026-05-08 12:46 29.25018 47.95883 135 ft 1 kts 158°
2026-05-08 12:46 29.25023 47.95881 135 ft 0 kts 155°
2026-05-08 12:48 29.25015 47.95885 135 ft 3 kts 155°
2026-05-08 12:49 29.24988 47.95900 135 ft 6 kts 155°
2026-05-08 12:49 29.24942 47.95926 135 ft 7 kts 150°
2026-05-08 12:49 29.24889 47.95953 135 ft 8 kts 156°
2026-05-08 12:49 29.24830 47.95985 135 ft 9 kts 154°
2026-05-08 12:50 29.24766 47.96019 136 ft 10 kts 155°
2026-05-08 12:50 29.24691 47.96058 136 ft 12 kts 155°
2026-05-08 12:50 29.24607 47.96103 137 ft 14 kts 155°
2026-05-08 12:50 29.24514 47.96153 138 ft 15 kts 155°
2026-05-08 12:51 29.24410 47.96208 138 ft 17 kts 155°
2026-05-08 12:51 29.24179 47.96332 141 ft 18 kts 155°
2026-05-08 12:51 29.24060 47.96395 142 ft 19 kts 155°
2026-05-08 12:52 29.23938 47.96460 143 ft 19 kts 154°
2026-05-08 12:52 29.23679 47.96598 144 ft 21 kts 154°
2026-05-08 12:52 29.23540 47.96671 144 ft 22 kts 155°
2026-05-08 12:53 29.23399 47.96746 146 ft 22 kts 155°
2026-05-08 12:53 29.23257 47.96822 147 ft 22 kts 155°
2026-05-08 12:53 29.23114 47.96896 150 ft 22 kts 154°
2026-05-08 12:53 29.22978 47.96969 153 ft 21 kts 155°
2026-05-08 12:54 29.22841 47.97041 154 ft 21 kts 155°
2026-05-08 12:54 29.22707 47.97113 156 ft 21 kts 155°
2026-05-08 12:54 29.22570 47.97185 159 ft 21 kts 155°
2026-05-08 12:54 29.22440 47.97256 162 ft 20 kts 154°
2026-05-08 12:55 29.22309 47.97326 163 ft 21 kts 154°
2026-05-08 12:55 29.22175 47.97398 164 ft 21 kts 154°
2026-05-08 12:55 29.22040 47.97469 166 ft 21 kts 155°
2026-05-08 12:55 29.21901 47.97541 167 ft 21 kts 158°
2026-05-08 12:56 29.21764 47.97615 168 ft 21 kts 154°
2026-05-08 12:56 29.21625 47.97688 170 ft 21 kts 155°
2026-05-08 12:56 29.21489 47.97761 173 ft 21 kts 154°
2026-05-08 12:56 29.21373 47.97825 175 ft 18 kts 155°
2026-05-08 12:57 29.21289 47.97857 176 ft 11 kts 191°
2026-05-08 12:57 29.21245 47.97778 175 ft 13 kts 266°
2026-05-08 12:57 29.21284 47.97675 173 ft 16 kts 306°
2026-05-08 12:57 29.21388 47.97567 173 ft 27 kts 333°
2026-05-08 12:58 29.21766 47.97368 168 ft 92 kts 334°
2026-05-08 12:58 29.22528 47.96960 157 ft 148 kts 335°
2026-05-08 12:58 29.23562 47.96401 377 ft 171 kts 336°
2026-05-08 12:58 29.24644 47.95829 934 ft 171 kts 336°
2026-05-08 12:59 29.25712 47.95267 1537 ft 171 kts 337°
2026-05-08 12:59 29.26802 47.94702 2038 ft 173 kts 337°
2026-05-08 12:59 29.27932 47.94112 2280 ft 186 kts 336°
2026-05-08 12:59 29.29145 47.93475 2527 ft 199 kts 336°
2026-05-08 13:00 29.30462 47.92782 2767 ft 214 kts 335°
2026-05-08 13:00 29.31864 47.92041 2971 ft 233 kts 335°
2026-05-08 13:00 29.33419 47.91268 3264 ft 250 kts 343°
2026-05-08 13:00 29.35192 47.91154 3588 ft 266 kts 10°
2026-05-08 13:01 29.36912 47.92024 3927 ft 274 kts 36°
2026-05-08 13:01 29.38134 47.93708 4073 ft 282 kts 60°
2026-05-08 13:01 29.39050 47.95731 4662 ft 286 kts 60°
2026-05-08 13:01 29.39956 47.97723 5343 ft 285 kts 60°
2026-05-08 13:02 29.40893 47.99737 5932 ft 288 kts 60°
2026-05-08 13:02 29.41838 48.01761 6508 ft 291 kts 60°
2026-05-08 13:02 29.42792 48.03798 7083 ft 294 kts 60°
2026-05-08 13:02 29.43621 48.05963 7640 ft 300 kts 77°
2026-05-08 13:03 29.43571 48.08331 8191 ft 305 kts 105°
2026-05-08 13:03 29.42796 48.10613 8772 ft 308 kts 113°
2026-05-08 13:03 29.41973 48.12869 9300 ft 312 kts 111°
2026-05-08 13:03 29.41147 48.15215 9851 ft 315 kts 111°
2026-05-08 13:04 29.40356 48.17538 10368 ft 320 kts 111°
2026-05-08 13:04 29.39526 48.19974 10657 ft 335 kts 112°
2026-05-08 13:04 29.38654 48.22528 10929 ft 350 kts 112°
2026-05-08 13:04 29.37756 48.25155 11221 ft 363 kts 112°
2026-05-08 13:05 29.37347 48.26350 11420 ft 367 kts 112°
2026-05-08 13:05 29.36409 48.29094 12035 ft 369 kts 112°
2026-05-08 13:05 29.35481 48.31817 12694 ft 370 kts 113°
2026-05-08 13:05 29.34553 48.34545 13336 ft 372 kts 113°
2026-05-08 13:06 29.33615 48.37297 13956 ft 374 kts 113°
2026-05-08 13:06 29.32662 48.40087 14538 ft 377 kts 113°
2026-05-08 13:06 29.31708 48.42873 15095 ft 381 kts 114°
2026-05-08 13:06 29.30725 48.45740 15656 ft 385 kts 114°
2026-05-08 13:07 29.29750 48.48580 16200 ft 388 kts 114°
2026-05-08 13:07 29.28749 48.51495 16750 ft 392 kts 114°
2026-05-08 13:07 29.27747 48.54414 17289 ft 396 kts 114°
2026-05-08 13:07 29.26741 48.57344 17818 ft 399 kts 114°
2026-05-08 13:08 29.25720 48.60314 18332 ft 403 kts 114°
2026-05-08 13:08 29.24696 48.63296 18835 ft 406 kts 114°
2026-05-08 13:08 29.23664 48.66297 19334 ft 409 kts 115°
2026-05-08 13:08 29.22612 48.69357 19833 ft 412 kts 115°
2026-05-08 13:09 29.21564 48.72400 20311 ft 415 kts 115°
2026-05-08 13:09 29.20510 48.75458 20784 ft 418 kts 115°
2026-05-08 13:09 29.19437 48.78571 21248 ft 421 kts 116°
2026-05-08 13:09 29.18366 48.81667 21703 ft 424 kts 116°
2026-05-08 13:10 29.17274 48.84823 22152 ft 426 kts 116°